Houston, TX

12:38 PM CST on December 08, 2019 (GMT -0600)
Houston

Weather History for KTME - November, 2019

Change the Weather History Date:

Tuesday, November 12, 2019

  Actual Average (WUND) Record (WUND)
Temperature  
Mean Temperature 37 °F -  
Max Temperature 44 °F - - (-1)
Min Temperature 30 °F - - (-1)
Degree Days  
Heating Degree Days 28    
Moisture  
Dew Point 25 °F    
Average Humidity 65    
Maximum Humidity 87    
Minimum Humidity 37    
Precipitation  
Precipitation 0.00 in - - ()
Sea Level Pressure  
Sea Level Pressure 30.44 in    
Wind  
Wind Speed 17 mph ()    
Max Wind Speed 28 mph    
Max Gust Speed 36 mph    
Visibility 10.0 miles    
Events      
Averages and records for this station are not official NWS values.
T = Trace of Precipitation, MM = Missing Value Source: Averaged Metar Reports

Daily Weather History Graph

Daily Weather History Graph

Search for Another Location

Airport or City:

Astronomy

Nov. 12, 2019 Rise Set
Actual Time 6:45 AM CST 5:29 PM CST
Civil Twilight 6:20 AM CST 5:54 PM CST
Nautical Twilight 5:51 AM CST 6:23 PM CST
Astronomical Twilight 5:23 AM CST 6:51 PM CST
Moon 5:55 PM CST (11/12) 6:41 AM CST (11/12)
Length of Visible Light 11h 33m
Length of Day
10h 43m
Full, 100% of the Moon is Illuminated
Nov 12
Full
Nov 19
Last Quarter
Nov 26
New
Dec 4
First Quarter
Dec 11
Full

Hourly Weather History & Observations

Time (CST) Temp. Windchill Dew Point Humidity Pressure Visibility Wind Dir Wind Speed Gust Speed Precip Events Conditions
12:15 AM 37.4 °F 25.4 °F 33.8 °F 87% 30.34 in 10.0 mi North 27.6 mph 35.7 mph N/A   Overcast
12:35 AM 37.4 °F 26.4 °F 33.8 °F 87% 30.36 in 10.0 mi North 23.0 mph 32.2 mph N/A   Overcast
12:55 AM 37.4 °F 26.4 °F 33.8 °F 87% 30.35 in 10.0 mi North 23.0 mph 32.2 mph N/A   Overcast
1:15 AM 35.6 °F 24.0 °F 32.0 °F 87% 30.36 in 10.0 mi North 23.0 mph 29.9 mph N/A   Overcast
1:55 AM 35.6 °F 24.8 °F 32.0 °F 87% 30.38 in 10.0 mi North 19.6 mph 28.8 mph N/A   Light Drizzle
2:15 AM 35.6 °F 24.0 °F 32.0 °F 87% 30.37 in 10.0 mi North 23.0 mph 32.2 mph N/A   Overcast
2:35 AM 35.6 °F 24.8 °F 32.0 °F 87% 30.38 in 10.0 mi North 19.6 mph 29.9 mph N/A   Light Drizzle
2:55 AM 35.6 °F 24.2 °F 32.0 °F 87% 30.39 in 10.0 mi North 21.9 mph 27.6 mph N/A   Overcast
3:15 AM 35.6 °F 24.0 °F 30.2 °F 81% 30.40 in 10.0 mi North 23.0 mph 29.9 mph N/A   Overcast
3:35 AM 35.6 °F 24.5 °F 30.2 °F 81% 30.40 in 10.0 mi North 20.7 mph 34.5 mph N/A   Overcast
3:55 AM 35.6 °F 24.2 °F 30.2 °F 81% 30.41 in 10.0 mi North 21.9 mph 31.1 mph N/A   Overcast
4:15 AM 35.6 °F 24.5 °F 30.2 °F 81% 30.42 in 10.0 mi North 20.7 mph - N/A   Overcast
4:35 AM 35.6 °F 24.5 °F 28.4 °F 75% 30.43 in 10.0 mi North 20.7 mph 32.2 mph N/A   Overcast
4:55 AM 35.6 °F 24.8 °F 28.4 °F 75% 30.44 in 10.0 mi North 19.6 mph 26.5 mph N/A   Overcast
5:15 AM 35.6 °F 24.5 °F 28.4 °F 75% 30.44 in 10.0 mi North 20.7 mph 32.2 mph N/A   Overcast
5:35 AM 35.6 °F 23.7 °F 28.4 °F 75% 30.45 in 10.0 mi North 24.2 mph 31.1 mph N/A   Overcast
5:55 AM 35.6 °F 23.7 °F 26.6 °F 70% 30.46 in 10.0 mi North 24.2 mph 31.1 mph N/A   Overcast
6:15 AM 35.6 °F 24.8 °F 26.6 °F 70% 30.46 in 10.0 mi North 19.6 mph 28.8 mph N/A   Scattered Clouds
6:35 AM 33.8 °F 21.9 °F 26.6 °F 75% 30.47 in 10.0 mi North 21.9 mph - N/A   Scattered Clouds
6:55 AM 33.8 °F 22.5 °F 24.8 °F 70% 30.48 in 10.0 mi North 19.6 mph 31.1 mph N/A   Mostly Cloudy
7:15 AM 33.8 °F 22.8 °F 24.8 °F 70% 30.48 in 10.0 mi North 18.4 mph - N/A   Partly Cloudy
7:35 AM 33.8 °F 22.2 °F 24.8 °F 70% 30.50 in 10.0 mi North 20.7 mph 27.6 mph N/A   Clear
7:55 AM 33.8 °F 22.8 °F 24.8 °F 70% 30.50 in 10.0 mi North 18.4 mph 26.5 mph N/A   Clear
8:15 AM 33.8 °F 21.3 °F 23.0 °F 65% 30.50 in 10.0 mi North 24.2 mph - N/A   Clear
8:35 AM 33.8 °F 21.9 °F 23.0 °F 65% 30.51 in 10.0 mi North 21.9 mph 28.8 mph N/A   Clear
8:55 AM 33.8 °F 22.5 °F 23.0 °F 65% 30.52 in 10.0 mi North 19.6 mph 25.3 mph N/A   Clear
9:15 AM 35.6 °F 24.0 °F 23.0 °F 60% 30.52 in 10.0 mi NNE 23.0 mph 28.8 mph N/A   Clear
9:35 AM 35.6 °F 24.0 °F 21.2 °F 56% 30.53 in 10.0 mi North 23.0 mph - N/A   Clear
9:55 AM 37.4 °F 27.2 °F 21.2 °F 52% 30.53 in 10.0 mi NNE 19.6 mph 27.6 mph N/A   Clear
10:15 AM 35.6 °F 25.5 °F 23.0 °F 60% 30.53 in 10.0 mi North 17.3 mph 25.3 mph N/A   Clear
10:35 AM 37.4 °F 28.9 °F 23.0 °F 56% 30.53 in 10.0 mi North 13.8 mph 23.0 mph N/A   Clear
10:55 AM 37.4 °F 27.2 °F 23.0 °F 56% 30.51 in 10.0 mi North 19.6 mph - N/A   Clear
11:15 AM 37.4 °F 27.2 °F 21.2 °F 52% 30.51 in 10.0 mi North 19.6 mph - N/A   Clear
11:35 AM 37.4 °F 27.8 °F 21.2 °F 52% 30.51 in 10.0 mi North 17.3 mph - N/A   Clear
11:55 AM 39.2 °F 29.6 °F 21.2 °F 49% 30.50 in 10.0 mi North 19.6 mph - N/A   Clear
12:15 PM 41.0 °F 32.5 °F 21.2 °F 45% 30.49 in 10.0 mi North 17.3 mph 23.0 mph N/A   Clear
12:35 PM 41.0 °F 32.8 °F 21.2 °F 45% 30.48 in 10.0 mi North 16.1 mph 24.2 mph N/A   Clear
12:55 PM 42.8 °F 36.2 °F 21.2 °F 42% 30.48 in 10.0 mi North 12.7 mph 21.9 mph N/A   Clear
1:15 PM 44.6 °F 37.4 °F 19.4 °F 37% 30.47 in 10.0 mi North 16.1 mph 23.0 mph N/A   Clear
1:35 PM 42.8 °F 34.8 °F 19.4 °F 39% 30.47 in 10.0 mi North 17.3 mph 25.3 mph N/A   Clear
1:55 PM 42.8 °F 35.1 °F 21.2 °F 42% 30.46 in 10.0 mi North 16.1 mph 24.2 mph N/A   Clear
2:15 PM 42.8 °F 34.5 °F 19.4 °F 39% 30.45 in 10.0 mi North 18.4 mph - N/A   Clear
2:35 PM 42.8 °F 34.5 °F 19.4 °F 39% 30.45 in 10.0 mi North 18.4 mph - N/A   Clear
2:55 PM 41.0 °F 32.5 °F 19.4 °F 42% 30.44 in 10.0 mi North 17.3 mph 23.0 mph N/A   Clear
3:15 PM 41.0 °F 32.2 °F 19.4 °F 42% 30.43 in 10.0 mi North 18.4 mph - N/A   Clear
3:35 PM 42.8 °F 35.4 °F 19.4 °F 39% 30.43 in 10.0 mi North 15.0 mph - N/A   Clear
3:55 PM 42.8 °F 35.1 °F 19.4 °F 39% 30.43 in 10.0 mi North 16.1 mph - N/A   Clear
4:15 PM 42.8 °F 34.8 °F 19.4 °F 39% 30.43 in 10.0 mi North 17.3 mph - N/A   Clear
4:35 PM 42.8 °F 35.4 °F 19.4 °F 39% 30.43 in 10.0 mi North 15.0 mph - N/A   Clear
4:55 PM 41.0 °F 34.3 °F 19.4 °F 42% 30.43 in 10.0 mi North 11.5 mph 20.7 mph N/A   Clear
5:15 PM 41.0 °F 34.7 °F 21.2 °F 45% 30.43 in 10.0 mi North 10.4 mph - N/A   Clear
5:35 PM 39.2 °F 32.5 °F 23.0 °F 52% 30.43 in 10.0 mi North 10.4 mph - N/A   Clear
5:55 PM 39.2 °F 33.6 °F 24.8 °F 56% 30.42 in 10.0 mi North 8.1 mph - N/A   Clear
6:15 PM 37.4 °F 32.1 °F 26.6 °F 65% 30.42 in 10.0 mi North 6.9 mph - N/A   Clear
6:35 PM 35.6 °F 29.9 °F 28.4 °F 75% 30.42 in 10.0 mi North 6.9 mph - N/A   Clear
6:55 PM 35.6 °F 29.2 °F 28.4 °F 75% 30.42 in 10.0 mi North 8.1 mph - N/A   Clear
7:15 PM 35.6 °F 29.2 °F 26.6 °F 70% 30.42 in 10.0 mi North 8.1 mph - N/A   Clear
7:35 PM 33.8 °F 27.0 °F 26.6 °F 75% 30.42 in 10.0 mi North 8.1 mph - N/A   Clear
7:55 PM 33.8 °F 27.7 °F 26.6 °F 75% 30.42 in 10.0 mi North 6.9 mph - N/A   Clear
8:15 PM 33.8 °F 27.7 °F 26.6 °F 75% 30.42 in 10.0 mi North 6.9 mph - N/A   Clear
8:55 PM 32.0 °F 26.4 °F 26.6 °F 80% 30.43 in 10.0 mi North 5.8 mph - N/A   Clear
9:15 PM 32.0 °F 26.4 °F 26.6 °F 80% 30.43 in 10.0 mi North 5.8 mph - N/A   Clear
9:35 PM 32.0 °F 25.6 °F 26.6 °F 80% 30.43 in 10.0 mi North 6.9 mph - N/A   Clear
9:55 PM 32.0 °F 24.2 °F 24.8 °F 75% 30.42 in 10.0 mi North 9.2 mph - N/A   Clear
10:15 PM 32.0 °F 24.2 °F 24.8 °F 75% 30.42 in 10.0 mi NNE 9.2 mph - N/A   Clear
10:35 PM 32.0 °F 24.8 °F 24.8 °F 75% 30.42 in 10.0 mi North 8.1 mph - N/A   Clear
10:55 PM 32.0 °F 26.4 °F 24.8 °F 75% 30.42 in 10.0 mi North 5.8 mph - N/A   Clear
11:15 PM 30.2 °F 26.7 °F 24.8 °F 80% 30.43 in 10.0 mi North 3.5 mph - N/A   Clear
11:35 PM 32.0 °F 27.5 °F 24.8 °F 75% 30.43 in 10.0 mi NNW 4.6 mph - N/A   Clear
11:55 PM 30.2 °F 24.3 °F 24.8 °F 80% 30.43 in 10.0 mi NNW 5.8 mph - N/A   Clear